Regional Weather Roundup
Issued by NWS Charleston, SC

Current Version | Previous Version | Graphics & Text | Print | Product List | Glossary On
Versions: 1 2 3 4 5 6 7 8 9 10 11 12 13 14 15 16 17 18 19 20 21 22 23 24 25 26 27 28 29 30 31 32 33 34 35 36 37 38 39 40 41 42 43 44 45 46 47 48 49 50
000
ASUS42 KCHS 040512
RWRCHS

REGIONAL WEATHER ROUNDUP
NATIONAL WEATHER SERVICE CHARLESTON SC
100 AM EDT MON MAY 04 2015

NOTE: "FAIR" INDICATES FEW OR NO CLOUDS BELOW 12,000 FEET WITH NO
SIGNIFICANT WEATHER AND/OR OBSTRUCTIONS TO VISIBILITY.

NOT ALL STATIONS ARE QUALITY CONTROLLED BY THE NATIONAL
WEATHER SERVICE. USE DATA WITH CAUTION...ESPECIALLY
DEWPOINT OBSERVATIONS.

SCZ027-030-031-034>040-042>050-040600-
...SOUTHEAST SOUTH CAROLINA...

CITY           SKY/WX    TMP DP  RH WIND       PRES   REMARKS
N CHARLESTON   PTCLDY    64  59  83 SE3       30.25R
WATERFRONT PRK   N/A     70 N/A N/A S3          N/A
MOUNT PLEASANT FAIR      61  61 100 MISG      30.25R
PINOPOLIS      NOT AVBL
MONCKS CORNER  MOCLDY    61  57  88 CALM      30.25R
SUMMERVILLE    FAIR      64  61  88 SE3       30.25S
BEAUFORT MCAS  CLEAR     63  60  90 CALM      30.24R
BEAUFORT ARPT  FAIR      63  61  94 CALM      30.23S
HILTON HEAD IS CLEAR     64  61  88 SE3       30.25S
WALTERBORO     PTCLDY    59  55  88 CALM      30.24F
ALLENDALE      FAIR      61  54  77 CALM      30.23R

...SOUTHERN MIDLANDS AND PEE DEE...

CITY           SKY/WX    TMP DP  RH WIND       PRES   REMARKS
GEORGETOWN     NOT AVBL
KINGSTREE      NOT AVBL
ORANGEBURG     CLEAR     62  53  72 CALM      30.24R
BARNWELL       FAIR      63  54  72 CALM      30.23S
AIKEN          FAIR      61  48  63 S7        30.25S
MANNING        FAIR      59  54  82 CALM      30.24S
COLUMBIA       PTCLDY    65  52  62 CALM      30.22R
SUMTER         PTCLDY    62  54  75 S3        30.22S
FLORENCE       CLEAR     61  57  87 S5        30.24R
MYRTLE BEACH   CLEAR     70  57  64 S8        30.27S
N MYRTLE BEACH CLEAR     67  59  75 S6        30.24S

$$

GAZ063-065-086>088-099>101-113>116-118-119-134>141-150-040600-
...SOUTHEAST GEORGIA...

CITY           SKY/WX    TMP DP  RH WIND       PRES   REMARKS
SAVANNAH ARPT  CLEAR     62  55  77 CALM      30.23S
HUNTER AAF     CLEAR     60  59  94 CALM      30.20F
FORT STEWART   CLEAR     58  52  81 CALM      30.21S
STATESBORO       N/A     56  54  92 CALM      30.23S
SYLVANIA       CLEAR     59  53  82 CALM      30.24S
CLAXTON        FAIR      55  54  94 CALM      30.23S

...CSRA...CENTRAL AND FAR SOUTHEAST GEORGIA...

CITY           SKY/WX    TMP DP  RH WIND       PRES   REMARKS
THOMSON          N/A     61  58  92 CALM      30.26R VSB 1
AUGUSTA-BUSH   CLEAR     61  51  70 S3        30.21S
AUGUSTA-DANIEL CLEAR     68  49  50 S7        30.22S
SWAINSBORO     NOT AVBL
VIDALIA        CLEAR     63  52  67 S3        30.22S
EASTMAN        FAIR      61  55  83 CALM      30.24S
HAZLEHURST     FAIR      65  52  62 S5        30.21S
ALMA           CLEAR     57  51  80 CALM      30.21F
WAYCROSS       CLEAR     67  55  65 S3        30.21F
JESUP          FAIR      59  54  82 CALM      30.22F
BAXLEY         FAIR      61  54  77 CALM      30.22S
BRUNSWICK      CLEAR     55  52  88 CALM      30.23S
SAINT SIMONS   CLEAR     63  55  75 CALM      30.22S

$$

SCZ027-028-034-036>038-045-046-048>050-GAZ119-141-040600-
...LAKE AND SUPPLEMENTAL COASTAL OBSERVATIONS...

STATION/POSITION TIME  TEMP    WIND        PRES    WAVE   SWELL
                       AIR SEA DIR/SP/G            HT/PER HT/PER/DIR
                 (UTC) (F)     (DEG/KT/KT) (MB)    (FT/S) (FT/S/D)
UPR LAKE MARION  NOT AVBL
WINYAH BAY       NOT AVBL
LAKE MURRAY      0400   70      90/  3/ 10 1022.4R
ACE BASIN NERRS  NOT AVBL
FORT PULASKI     0412   67 70  150/  1/  3 1024.1R
SAPELO ISLAND    0400   61     140/  4     1023.0S

$$

ANZ835-935-AMZ111-154-330-350-352-354-370-450-454-472-040600-
...C-MAN AND BUOY OBSERVATIONS...

STATION/POSITION TIME  TEMP    WIND        PRES    WAVE   SWELL
                       AIR SEA DIR/SP/G            HT/PER HT/PER/DIR
                 (UTC) (F)     (DEG/KT/KT) (MB)    (FT/S) (FT/S/D)
BUOY 41004       0450   73 73  150/ 10/ 12 1023.7R   3/10   3/10
BUOY 41008       0450   70 70  120/  4/  6 1023.8F   2/12   2/ 70/12
FOLLY BEACH CMAN 0400   69     160/  7/  7 1024.1R
CAPERS NEARSHORE 0408   70     160/  6/  8 1024.1R
FRIPP NEARSHORE  0400   70     170/  8/ 10 1023.2R


STATION/POSITION TIME  TEMP    WIND        PRES    WAVE   SWELL
                       AIR SEA DIR/SP/G            HT/PER HT/PER/DIR
                 (UTC) (F)     (DEG/KT/KT) (MB)    (FT/S) (FT/S/D)
5E ST. MARYS GA  0421      71                N/A     2/11   2/ 90/11
FRYING PAN BUOY  0450   73 72  180/  8/  8 1025.2S   3/11   3/ 70/11
BUOY 41025       0450   62 60  290/  6/  8 1024.5R   4/ 9   3/ 70/ 9
CAPE LOOKOUT NC  0400   66     190/  4/  5 1024.3R
BUOY 41002       0450   68 70   70/ 10/ 12 1024.7F   7/11   7/ 30/11
BUOY 41010       0420   73 78   70/ 14/ 17 1022.5F
ST AUGUSTINE FL  0500   71 71   70/  5/  5 1023.6F


$$


USA.gov is the U.S. government's official web portal to all federal, state and local government web resources and services.